Weather reports worldwide

Advertisment
Bournemouth Airport, United Kingdom (3862): temperature & dewpoint: 18.06.2017 04:00:00 - 24.06.2017 04:00:00 (BST)Bournemouth Airport, United Kingdom (3862): temperature 5cm: 18.06.2017 04:00:00 - 24.06.2017 04:00:00 (BST)Bournemouth Airport, United Kingdom (3862): temperature -20cm & temperature -100cm: 18.06.2017 04:00:00 - 24.06.2017 04:00:00 (BST)Bournemouth Airport, United Kingdom (3862): wind speed & gusts: 18.06.2017 04:00:00 - 24.06.2017 04:00:00 (BST)Bournemouth Airport, United Kingdom (3862): wind direction: 18.06.2017 04:00:00 - 24.06.2017 04:00:00 (BST)Bournemouth Airport, United Kingdom (3862): reduced air pressure: 18.06.2017 04:00:00 - 24.06.2017 04:00:00 (BST)Bournemouth Airport, United Kingdom (3862): visibility: 18.06.2017 04:00:00 - 24.06.2017 04:00:00 (BST)Bournemouth Airport, United Kingdom (3862): sunshine duration: 18.06.2017 04:00:00 - 24.06.2017 04:00:00 (BST)Bournemouth Airport, United Kingdom (3862): precipitation: 18.06.2017 04:00:00 - 24.06.2017 04:00:00 (BST)
Date & Time tt [°C] td [°C] tt 5cm [°C] tt -20cm [°C] tt -100cm [°C] ff [km/h] ff [kn] fx [km/h] fx [kn] dd ppp [hPa] vv [km] sd [min] rr [mm]
24.06.2017 04:00:00 16,1 14,4 - - - 24 13 - - WSW 1016,1 7 0 0,0
24.06.2017 03:00:00 16,5 13,9 - - - 24 13 - - WSW 1016,6 15 0 0,0
24.06.2017 02:00:00 16,5 13,5 - - - 21 11 - - WSW 1016,9 15 0 0,0
24.06.2017 01:00:00 16,5 13,6 - - - 18 10 - - W 1017,3 16 - 0,0
24.06.2017 00:00:00 16,5 13,6 - - - 22 12 - - WSW 1017,3 10 0 0,0
23.06.2017 23:00:00 16,5 13,6 - - - 21 11 - - WSW 1017,4 10 0 0,0
23.06.2017 22:00:00 16,9 13,8 - - - 22 12 - - WSW 1017,6 10 0 0,0
23.06.2017 21:00:00 17,4 14,2 - - - 28 15 - - WSW 1017,8 10 0 0,0
23.06.2017 20:00:00 17,8 14,4 - - - 28 15 52 28 WSW 1017,7 10 0 0,0
23.06.2017 19:00:00 18,3 14,2 - - - 31 17 - - WSW 1017,7 10 18 0,0
23.06.2017 18:00:00 19,9 14,3 - - - 28 15 46 25 WSW 1017,9 10 0 0,0
23.06.2017 17:00:00 20,3 13,4 - - - 29 16 46 25 W 1018,0 10 18 0,0
23.06.2017 16:00:00 20,3 12,3 - - - 29 16 - - WSW 1017,7 10 6 0,0
23.06.2017 15:00:00 20,7 12,3 - - - 28 15 - - WSW 1017,9 10 0 0,0
23.06.2017 14:00:00 20,4 12,9 - - - 22 12 - - WSW 1018,1 10 6 0,0
23.06.2017 13:00:00 20,8 12,6 - - - 24 13 - - WSW 1017,9 10 18 0,0
23.06.2017 12:00:00 19,5 11,9 - - - 26 14 - - W 1018,2 10 6 0,0
23.06.2017 11:00:00 18,1 11,9 - - - 22 12 - - W 1018,5 10 0 0,0
23.06.2017 10:00:00 17,4 11,7 - 20,7 16,7 24 13 - - W 1018,4 10 0 0,0
23.06.2017 09:00:00 16,6 11,1 - - - 21 11 - - W 1018,1 10 0 0,0
23.06.2017 08:00:00 15,8 11,2 - - - 18 10 - - W 1017,8 10 0 0,0
23.06.2017 07:00:00 14,8 11,3 - - - 16 9 - - W 1017,4 10 60 0,0
23.06.2017 06:00:00 12,7 10,4 - - - 5 3 - - SW 1017,2 16 0 0,0
23.06.2017 05:00:00 12,6 9,7 - - - 15 8 - - W 1017,1 16 0 0,0
23.06.2017 04:00:00 12,7 9,8 - - - 13 7 - - W 1017,0 18 0 0,0
23.06.2017 03:00:00 15,0 11,7 - - - 15 8 - - W 1016,6 21 0 0,0
23.06.2017 02:00:00 15,0 12,1 - - - 11 6 - - W 1016,8 21 0 0,0
23.06.2017 01:00:00 12,1 10,8 - - - 9 5 - - W 1016,6 17 - 0,0
23.06.2017 00:00:00 13,0 10,7 - - - 8 4 - - W 1016,6 17 0 0,0
22.06.2017 23:00:00 15,4 12,5 - - - 11 6 - - NW 1016,3 10 0 0,0
22.06.2017 22:00:00 16,8 12,5 - - - 13 7 - - NW 1015,6 10 0 0,0
22.06.2017 21:00:00 18,6 13,2 - - - 15 8 - - NW 1014,8 10 18 0,0
22.06.2017 20:00:00 19,6 13,4 - - - 15 8 - - WNW 1014,6 10 6 0,0
22.06.2017 19:00:00 20,4 13,8 - - - 16 9 - - NW 1014,6 10 0 0,0
22.06.2017 18:00:00 21,3 13,2 - - - 24 13 - - W 1014,1 10 0 0,0
22.06.2017 17:00:00 21,4 13,7 - - - 21 11 - - WNW 1014,1 10 0 0,0
22.06.2017 16:00:00 21,7 13,6 - - - 21 11 - - W 1013,7 10 6 0,0
22.06.2017 15:00:00 21,7 13,7 - - - 18 10 - - W 1013,7 10 0 0,0
22.06.2017 14:00:00 20,7 14,0 - - - 22 12 - - W 1013,6 10 0 0,0
22.06.2017 13:00:00 20,9 13,7 - - - 22 12 - - W 1013,3 10 0 0,0
22.06.2017 12:00:00 21,0 12,5 - - - 24 13 - - W 1013,3 10 18 0,0
22.06.2017 11:00:00 21,1 13,8 - - - 28 15 - - WNW 1013,0 10 6 0,0
22.06.2017 10:00:00 20,3 14,5 - 21,2 16,7 22 12 - - W 1012,8 10 6 0,0
22.06.2017 09:00:00 19,3 14,2 - - - 22 12 - - W 1012,7 10 6 0,0
22.06.2017 08:00:00 18,5 16,0 - - - 13 7 - - NW 1012,3 7 0 0,0
22.06.2017 07:00:00 18,0 16,8 - - - 11 6 - - W 1012,2 5 0 0,0
22.06.2017 06:00:00 17,1 16,2 - - - 8 4 - - WSW 1011,8 5 0 0,0
22.06.2017 05:00:00 16,7 15,7 - - - 9 5 - - W 1011,9 8 0 0,0
22.06.2017 04:00:00 16,7 15,6 - - - 13 7 - - W 1012,0 9 0 0,0
22.06.2017 03:00:00 16,9 15,8 - - - 18 10 - - WSW 1012,4 8 0 0,0
22.06.2017 02:00:00 16,6 15,7 - - - 13 7 - - WSW 1012,7 11 0 0,0
22.06.2017 01:00:00 17,2 15,9 - - - 9 5 - - SSW 1012,7 6 - 0,0
22.06.2017 00:00:00 18,1 17,2 - - - 8 4 - - SW 1012,7 6 0 0,0
21.06.2017 23:00:00 17,2 15,6 - - - 4 2 - - - 1012,5 6 0 0,0
21.06.2017 22:00:00 19,0 16,6 - - - 8 4 - - SSE 1012,3 7 0 0,0
21.06.2017 21:00:00 19,8 16,5 - - - 9 5 - - SE 1012,4 8 12 0,0
21.06.2017 20:00:00 21,4 16,5 - - - 15 8 - - SSE 1012,3 10 60 0,0
21.06.2017 19:00:00 22,3 16,7 - - - 13 7 - - SSE 1012,4 10 54 0,0
21.06.2017 18:00:00 23,2 16,6 - - - 13 7 - - SSE 1012,4 10 60 0,0
21.06.2017 17:00:00 24,5 16,9 - - - 15 8 - - S 1012,7 10 60 0,0
21.06.2017 16:00:00 24,6 16,5 - - - 13 7 - - S 1012,9 10 60 0,0
21.06.2017 15:00:00 25,4 16,5 - - - 16 9 - - SSE 1013,0 10 60 0,0
21.06.2017 14:00:00 26,0 16,3 - - - 18 10 - - S 1013,5 10 60 0,0
21.06.2017 13:00:00 28,1 18,3 - - - 15 8 - - S 1013,7 13 60 0,0
21.06.2017 12:00:00 28,2 18,6 - - - 13 7 - - SE 1013,7 10 60 0,0
21.06.2017 11:00:00 26,9 18,0 - - - 15 8 - - E 1013,8 10 60 0,0
21.06.2017 10:00:00 25,8 18,4 25,8 20,9 16,2 13 7 - - E 1014,2 10 60 0,0
21.06.2017 09:00:00 23,0 17,5 - - - 16 9 - - E 1014,6 10 60 0,0
21.06.2017 08:00:00 21,4 17,4 - - - 11 6 - - ENE 1014,9 10 60 0,0
21.06.2017 07:00:00 18,6 16,3 - - - 8 4 - - NE 1014,8 10 0 0,0
21.06.2017 06:00:00 16,6 15,4 - - - 8 4 - - N 1014,9 10 0 0,0
21.06.2017 05:00:00 16,3 14,7 - - - 4 2 - - NE 1014,7 10 0 0,0
21.06.2017 04:00:00 16,7 14,9 - - - 5 3 - - NE 1015,0 14 0 0,0
21.06.2017 03:00:00 16,8 15,0 - - - 4 2 - - N 1015,6 16 0 0,0
21.06.2017 02:00:00 17,2 15,3 - - - 8 4 - - NE 1016,1 14 0 0,0
21.06.2017 01:00:00 17,9 15,8 - - - 8 4 - - NE 1016,5 14 - 0,0
21.06.2017 00:00:00 19,0 16,0 - - - 5 3 - - ENE 1016,8 12 0 0,0
20.06.2017 23:00:00 20,1 15,3 - - - 5 3 - - E 1016,6 10 0 0,0
20.06.2017 22:00:00 22,4 16,2 - - - 9 5 - - E 1016,5 10 0 0,0
20.06.2017 21:00:00 23,1 16,0 - - - 5 3 - - S 1016,2 10 24 0,0
20.06.2017 20:00:00 25,5 16,6 - - - 9 5 - - S 1016,0 10 24 0,0
20.06.2017 19:00:00 27,3 16,5 - - - 11 6 - - S 1015,6 10 60 0,0
20.06.2017 18:00:00 28,2 16,8 - - - 16 9 - - SSE 1015,7 10 60 0,0
20.06.2017 17:00:00 28,9 16,6 - - - 18 10 - - SSE 1016,0 10 60 0,0
20.06.2017 16:00:00 28,9 17,1 - - - 16 9 - - S 1016,4 10 60 0,0
20.06.2017 15:00:00 30,0 17,2 - - - 18 10 - - S 1016,7 10 60 0,0
20.06.2017 14:00:00 29,8 15,7 - - - 16 9 - - SSE 1016,8 10 60 0,0
20.06.2017 13:00:00 29,6 14,2 - - - 13 7 - - E 1016,9 10 60 0,0
20.06.2017 12:00:00 28,8 13,9 - - - 11 6 - - E 1017,0 10 60 0,0
20.06.2017 11:00:00 27,7 17,4 - - - 13 7 - - E 1017,2 10 60 0,0
20.06.2017 10:00:00 24,6 18,2 24,6 20,4 16,0 11 6 - - NE 1017,3 10 60 0,0
20.06.2017 09:00:00 22,2 17,7 - - - 8 4 - - N 1017,3 10 60 0,0
20.06.2017 08:00:00 19,9 17,2 - - - 5 3 - - - 1017,2 10 18 0,0
20.06.2017 07:00:00 16,9 15,9 - - - 0 0 - - N 1017,1 10 0 0,0
20.06.2017 06:00:00 15,0 14,3 - - - 5 3 - - NW 1017,4 6 0 0,0
20.06.2017 05:00:00 14,5 13,7 - - - 4 2 - - WNW 1017,1 6 0 0,0
20.06.2017 04:00:00 14,4 13,1 - - - 4 2 - - NNE 1017,1 10 0 0,0
20.06.2017 03:00:00 15,2 13,8 - - - 4 2 - - N 1017,1 9 0 0,0
20.06.2017 02:00:00 15,9 14,6 - - - 4 2 - - NE 1017,2 10 0 0,0
20.06.2017 01:00:00 16,4 14,3 - - - 4 2 - - E 1017,6 12 - 0,0
20.06.2017 00:00:00 17,9 15,3 - - - 4 2 - - NNE 1017,6 10 0 0,0
19.06.2017 23:00:00 18,9 15,2 - - - 4 2 - - NNE 1017,6 11 0 0,0
19.06.2017 22:00:00 20,4 15,9 - - - 4 2 - - ENE 1017,5 11 0 0,0
19.06.2017 21:00:00 24,1 15,2 - - - 5 3 - - SSE 1017,3 10 42 0,0
19.06.2017 20:00:00 24,8 15,1 - - - 8 4 - - S 1017,3 10 60 0,0
19.06.2017 19:00:00 26,3 15,3 - - - 8 4 - - SSE 1017,1 13 60 0,0
19.06.2017 18:00:00 26,9 15,3 - - - 11 6 - - SSE 1017,2 10 60 0,0
19.06.2017 17:00:00 27,4 15,3 - - - 13 7 - - SE 1017,4 10 60 0,0
19.06.2017 16:00:00 27,9 15,7 - - - 16 9 - - S 1017,8 10 60 0,0
19.06.2017 15:00:00 28,0 16,7 - - - 15 8 - - S 1018,2 10 60 0,0
19.06.2017 14:00:00 28,4 17,8 - - - 16 9 - - SSE 1018,2 10 60 0,0
19.06.2017 13:00:00 28,4 17,3 - - - 16 9 - - SSE 1018,6 10 60 0,0
19.06.2017 12:00:00 28,5 16,8 - - - 11 6 - - SE 1018,8 10 60 0,0
19.06.2017 11:00:00 27,8 17,5 - - - 8 4 - - ESE 1019,1 10 60 0,0
19.06.2017 10:00:00 26,1 17,5 26,3 19,9 15,7 5 3 - - - 1019,3 10 60 0,0
19.06.2017 09:00:00 24,0 17,2 - - - 5 3 - - - 1019,5 10 60 0,0
19.06.2017 08:00:00 21,7 17,2 - - - 5 3 - - - 1019,7 10 60 0,0
19.06.2017 07:00:00 17,1 15,9 - - - 4 2 - - N 1019,9 10 60 0,0
19.06.2017 06:00:00 14,4 13,7 - - - 5 3 - - NNW 1020,1 8 24 0,0
19.06.2017 05:00:00 13,5 12,9 - - - 5 3 - - NW 1020,1 8 0 0,0
19.06.2017 04:00:00 14,4 13,6 - - - 2 1 - - W 1020,3 16 0 0,0
19.06.2017 03:00:00 14,8 13,8 - - - 4 2 - - NW 1020,5 13 0 0,0
19.06.2017 02:00:00 15,6 14,4 - - - 5 3 - - NNW 1020,8 20 0 0,0
19.06.2017 01:00:00 16,7 14,7 - - - 4 2 - - N 1021,0 21 - 0,0
19.06.2017 00:00:00 17,5 14,9 - - - 4 2 - - N 1021,2 10 0 0,0
18.06.2017 23:00:00 18,8 15,3 - - - 4 2 - - NE 1021,4 10 0 0,0
18.06.2017 22:00:00 20,6 15,4 - - - 4 2 - - NNE 1021,2 10 6 0,0
18.06.2017 21:00:00 23,8 15,1 - - - 5 3 - - SSE 1021,2 10 60 0,0
18.06.2017 20:00:00 25,0 15,1 - - - 9 5 - - S 1021,3 10 60 0,0
18.06.2017 19:00:00 25,7 14,8 - - - 13 7 - - S 1021,6 10 60 0,0
18.06.2017 18:00:00 26,2 14,7 - - - 13 7 - - SSE 1021,9 10 60 0,0
18.06.2017 17:00:00 26,5 14,5 - - - 15 8 - - S 1022,1 10 60 0,0
18.06.2017 16:00:00 26,4 16,1 - - - 15 8 - - S 1022,4 30 60 0,0
18.06.2017 15:00:00 27,3 16,6 - - - 16 9 - - SSE 1022,8 10 60 0,0
18.06.2017 14:00:00 27,2 15,2 - - - 13 7 - - S 1023,2 10 60 0,0
18.06.2017 13:00:00 26,4 16,1 - - - 11 6 - - SSE 1023,8 10 60 0,0
18.06.2017 12:00:00 25,5 15,6 - - - 8 4 - - - 1024,2 10 60 0,0
18.06.2017 11:00:00 24,6 14,7 - - - 9 5 - - - 1024,4 10 60 0,0
18.06.2017 10:00:00 24,0 15,3 22,2 18,7 15,5 5 3 - - - 1024,7 10 54 0,0
18.06.2017 09:00:00 20,6 14,9 - - - 0 0 - - N 1024,9 10 24 0,0
18.06.2017 08:00:00 18,0 13,9 - - - 0 0 - - N 1025,0 10 6 0,0
18.06.2017 07:00:00 15,6 12,7 - - - 0 0 - - N 1025,1 10 42 0,0
18.06.2017 06:00:00 13,0 11,8 - - - 8 4 - - NNW 1024,9 24 0 0,0
18.06.2017 05:00:00 12,4 10,7 - - - 5 3 - - NNW 1024,7 25 0 0,0
18.06.2017 04:00:00 12,7 10,4 - - - 4 2 - - N 1024,9 30 0 0,0

tt = temperature
td = dewpoint
tt 5cm = temperature 5cm
tt -20cm = temperature -20cm
tt -100cm = temperature -100cm
ff = wind speed
fx = gusts
dd = wind direction
ppp = reduced air pressure
vv = visibility
sd = sunshine duration
rr = precipitation

Next stations